Volver al catálogo

STARLINK-2228

ActivoComunicacionesVLEO
NORAD 48576·PAYLOAD·🇺🇸 United States

Lanzado May 15, 2021 desde Cape Canaveral Space Force Station

Loading…

Próximos Pases (próximas 24 horas)

TLE

ActualizadoSource: CelesTrak SupGP

Época: Sep 14, 2026, 13:02 UTC

1 48576C 21041Z   26257.54354167  .00044157  00000+0  14200-2 0  2571
2 48576  53.1568 302.1834 0001211  85.1142 222.9848 15.31679773    12

Sigue STARLINK-2228 en tiempo real con AllMySat

Download on the App Store